This demonstration page uses our WeatherBlox Daily Observations layout. Learn more.

39.92423, -83.80882

Hourly Observations for May 5, 2017

Temp ( °F °C ) Dew Point ( °F °C ) Humidity (%) Winds ( mph kmh ) Pressure ( in mb ) Visibility ( mi km ) Precip ( " mm )
12:13 am 00:13 Cloudy with Light Rain 54 12 54 12 100 100 NNE 12 19 29.65 1004 4 6.43736 0.01 0.254
12:56 am 00:56 Cloudy with Light Rain 53 11.7 52 11.1 96 96 NE 10 17 29.62 1003 4 6.43736 0.05 1.27
1:56 am 01:56 Cloudy with Light Rain 51 10.6 50 10 96 96 NNE 15 24 29.59 1002 6 9.65604 0 0.0254
2:56 am 02:56 Cloudy with Light Rain 49 9.4 49 9.4 100 100 N 15 24 29.58 1002 9 14.48406 0.01 0.254
3:56 am 03:56 Cloudy with Light Rain 49 9.4 48 8.9 97 97 NNE 14 22 29.55 1001 8 12.87472 0.01 0.254
4:56 am 04:56 Cloudy with Light Rain 48 8.9 47 8.3 96 96 NNE 15 24 29.53 1000 6 9.65604 0 0.0254
5:56 am 05:56 Cloudy with Light Rain 47 8.3 46 7.8 97 97 NNE 16 26 29.48 998 10 16.0934 0.04 1.016
6:56 am 06:56 Cloudy with Light Rain 47 8.3 45 7.2 93 93 NNE 16 26 29.48 998 10 16.0934 0 0.0254
7:56 am 07:56 Cloudy with Light Rain 46 7.8 45 7.2 96 96 N 22 35 29.45 997 2.5 4.02335 0 0.0254
8:16 am 08:16 Cloudy with Rain 46 8 45 7 93 93 NNE 18 30 29.47 998 3 4.82802 0.02 0.508
8:56 am 08:56 Cloudy with Heavy Rain 46 7.8 44 6.7 93 93 NNE 18 30 29.45 997 5 8.0467 0.24 6.096
9:56 am 09:56 Cloudy with Rain 45 7.2 44 6.7 97 97 N 14 22 29.47 998 10 16.0934 0.19 4.826
10:56 am 10:56 Cloudy with Light Rain 45 7.2 43 6.1 93 93 N 15 24 29.48 998 5 8.0467 0.18 4.572
11:56 am 11:56 Cloudy with Light Rain 45 7.2 44 6.7 97 97 N 15 24 29.48 998 3 4.82802 0.09 2.286
12:21 pm 12:21 Cloudy with Rain 46 8 45 7 93 93 N 18 30 29.5 999 2.5 4.02335 0.02 0.508
12:38 pm 12:38 Cloudy with Light Rain 46 8 45 7 93 93 N 21 33 29.5 999 3 4.82802 0.03 0.762
12:56 pm 12:56 Cloudy with Light Rain 46 7.8 44 6.7 93 93 N 21 33 29.48 998 4 6.43736 0.04 1.016
1:23 pm 13:23 Cloudy with Light Rain 46 8 45 7 93 93 N 21 33 29.5 999 5 8.0467 0.01 0.254
1:53 pm 13:53 Cloudy with Light Rain 46 8 45 7 93 93 N 18 30 29.5 999 5 8.0467 0.02 0.508
1:56 pm 13:56 Cloudy with Light Rain 46 7.8 44 6.7 93 93 N 21 33 29.5 999 5 8.0467 0.02 0.508
2:56 pm 14:56 Cloudy with Light Rain 47 8.3 45 7.2 93 93 N 20 31 29.51 999 3 4.82802 0.02 0.508
3:56 pm 15:56 Cloudy with Light Rain 46 7.8 45 7.2 96 96 N 21 33 29.52 1000 4 6.43736 0.02 0.508
4:56 pm 16:56 Cloudy with Light Rain 46 7.8 44 6.7 93 93 N 16 26 29.54 1000 3 4.82802 0.02 0.508
5:56 pm 17:56 Cloudy with Light Rain 45 7.2 44 6.7 97 97 N 22 35 29.56 1001 4 6.43736 0.01 0.254
6:56 pm 18:56 Cloudy with Light Rain 45 7.2 43 6.1 93 93 N 16 26 29.59 1002 7 11.26538 0 0.0254
7:26 pm 19:26 Cloudy with Light Rain 45 7 43 6 93 93 NNW 17 28 29.59 1002 6 9.65604 0 0.0254
7:56 pm 19:56 Cloudy with Light Rain 45 7.2 42 5.6 90 90 NNW 21 33 29.6 1003 10 16.0934 0.01 0.254
8:56 pm 20:56 Cloudy with Light Rain 44 6.7 41 5 89 89 N 18 30 29.62 1003 10 16.0934 0 0.0254
9:56 pm 21:56 Cloudy 44 6.7 41 5 89 89 N 17 28 29.63 1003 10 16.0934 0 0.0254
10:56 pm 22:56 Cloudy 45 7.2 40 4.4 83 83 N 15 24 29.64 1004 10 16.0934 0 0.0254
11:41 pm 23:41 Mostly Cloudy 45 7 39 4 81 81 N 13 20 29.65 1004 10 16.0934 0 0
11:56 pm 23:56 Cloudy 45 7.2 40 4.4 83 83 N 15 24 29.65 1004 10 16.0934 0 0

Powered by AerisWeather